TimeCST,TemperatureF,Dew PointF,Humidity,Sea Level PressureIn,VisibilityMPH,Wind Direction,Wind SpeedMPH,Gust SpeedMPH,PrecipitationIn,Events,Conditions,WindDirDegrees,DateUTC
12:53 AM,50.0,48.0,93,30.11,10.0,Calm,Calm,-,N/A,,Overcast,0,2012-12-06 06:53:00
1:53 AM,50.0,48.0,93,30.10,10.0,Calm,Calm,-,N/A,,Overcast,0,2012-12-06 07:53:00
2:53 AM,48.0,46.0,93,30.09,10.0,Calm,Calm,-,N/A,,Mostly Cloudy,0,2012-12-06 08:53:00
3:53 AM,50.0,48.0,93,30.10,10.0,North,3.5,-,N/A,,Overcast,350,2012-12-06 09:53:00
4:53 AM,50.0,48.0,93,30.09,10.0,Calm,Calm,-,N/A,,Overcast,0,2012-12-06 10:53:00
5:53 AM,51.1,46.9,86,30.10,10.0,Calm,Calm,-,N/A,,Overcast,0,2012-12-06 11:53:00
6:53 AM,50.0,45.0,83,30.11,10.0,East,3.5,-,N/A,,Overcast,90,2012-12-06 12:53:00
7:53 AM,54.0,45.0,72,30.11,10.0,ESE,3.5,-,N/A,,Overcast,120,2012-12-06 13:53:00
8:53 AM,57.0,50.0,77,30.11,10.0,SE,8.1,-,N/A,,Overcast,140,2012-12-06 14:53:00
9:53 AM,62.1,54.0,75,30.10,10.0,SE,16.1,-,N/A,,Overcast,140,2012-12-06 15:53:00
10:53 AM,64.0,55.0,73,30.09,10.0,SSE,10.4,-,N/A,,Overcast,150,2012-12-06 16:53:00
11:53 AM,66.9,55.0,66,30.06,10.0,SSE,10.4,-,N/A,,Overcast,160,2012-12-06 17:53:00
12:53 PM,68.0,54.0,61,30.04,10.0,South,6.9,-,N/A,,Overcast,170,2012-12-06 18:53:00
1:53 PM,68.0,54.0,61,30.01,10.0,SSE,11.5,-,N/A,,Overcast,160,2012-12-06 19:53:00
2:53 PM,68.0,54.0,61,30.00,10.0,SE,8.1,-,N/A,,Scattered Clouds,140,2012-12-06 20:53:00
3:53 PM,66.9,55.0,66,30.01,10.0,SE,5.8,-,N/A,,Overcast,140,2012-12-06 21:53:00
4:53 PM,64.9,52.0,63,30.01,10.0,SE,3.5,-,N/A,,Overcast,130,2012-12-06 22:53:00
5:53 PM,64.0,53.1,67,30.02,10.0,East,3.5,-,N/A,,Overcast,100,2012-12-06 23:53:00
7:53 PM,61.0,51.1,70,30.02,10.0,ESE,8.1,-,N/A,,Scattered Clouds,120,2012-12-07 01:53:00
8:53 PM,57.9,48.0,70,30.02,10.0,ESE,6.9,-,N/A,,Clear,120,2012-12-07 02:53:00
9:53 PM,55.9,46.9,72,30.03,10.0,SE,5.8,-,N/A,,Overcast,140,2012-12-07 03:53:00
10:53 PM,55.9,46.0,69,30.03,10.0,SE,6.9,-,N/A,,Overcast,140,2012-12-07 04:53:00
11:53 PM,52.0,45.0,77,30.02,10.0,SE,9.2,-,N/A,,Clear,140,2012-12-07 05:53:00